BEIDOU-3 G2 (PRN 144)

Last updated on Thu Jul 03 2025 00:03:25 GMT+0000 (Coordinated Universal Time)

1 45344U 20017A 25183.58531825 -.00000136 00000+0 00000+0 0 9995 2 45344 2.8993 40.7984 0001843 48.2107 122.5890 1.00271963 19751
UTC large
Height (km)
Speed (km/s)
/
Latitude / Longitude
Inclination (degrees)
Orbital Period (minutes)
Azimuth
Elevation
Range (km)
Doppler Factor

Next 0 passes for location: London (51.5072 / 0.1276)

Sorry there are no passes over London.